Date String (YYYY-MM-DD hh:mm:ss) UTC,Instrument flags,absolute air pressure of the measurement (hPa),sample flow rate (lpm),inlet stack bypass flow (lpm),air temperature of the measurement (°C),ambient temperature measured by the external sensor (°C),aerosol sample conditioner tube jacket temperature (°C),OPC LED temperature (°C),internal box temperature (°C),relative humidity of the measurement (%),span deviation,mass concentration of particles derived from Lorenz-Mie calculation of OPC scattering (μg/m³),mass concentration of particles derived from Lorenz-Mie calculation of OPC scattering (μg/m³),mass concentration of particles derived from Lorenz-Mie calculation of OPC scattering (μg/m³)
DateTimeUTC,F1_M11,P_M11,Q1_M11,Q2_M11,T1_M11,T2_M11,T3_M11,T4_M11,T5_M11,U1_M11,ZSPAN_M11,X0_M11,X2_M11,X1_M11
2024-04-11 06:00:00,SystemResetWarning,0834.4,5.00,000.00,025.4,024.6,000.0,034.1,027.3,016.7,0000.0,0003.01,0001.42,0001.02
2024-04-11 06:01:00,SystemResetWarning,0834.4,5.00,000.00,025.4,024.5,000.0,034.1,027.3,016.7,0000.0,0002.90,0001.41,0001.03
2024-04-11 06:02:00,SystemResetWarning,0834.4,5.00,000.00,025.4,024.6,000.0,034.1,027.3,016.7,0000.0,0002.95,0001.41,0001.04
2024-04-11 06:03:00,SystemResetWarning,0834.4,5.00,000.00,025.4,024.6,000.0,034.1,027.3,016.7,0000.0,0002.93,0001.39,0001.04
2024-04-11 06:04:00,SystemResetWarning,0834.4,5.00,000.00,025.4,024.6,000.0,034.1,027.3,016.8,0000.0,0003.00,0001.43,0001.06
2024-04-11 06:05:00,SystemResetWarning,0834.4,5.00,000.00,025.4,024.6,000.0,034.1,027.3,016.8,0000.0,0003.07,0001.46,0001.07
2024-04-11 06:06:00,SystemResetWarning,0834.4,5.01,000.00,025.4,024.6,000.0,034.1,027.3,016.7,0000.0,0003.08,0001.46,0001.07
2024-04-11 06:07:00,SystemResetWarning,0834.4,5.00,000.00,025.4,024.6,000.0,034.0,027.3,016.7,0000.0,0003.79,0001.49,0001.08
2024-04-11 06:08:00,SystemResetWarning,0834.4,5.00,000.00,025.4,024.5,000.0,034.0,027.3,016.8,0000.0,0003.86,0001.50,0001.08
2024-04-11 06:09:00,SystemResetWarning,0834.4,5.00,000.00,025.4,024.5,000.0,034.0,027.3,016.7,0000.0,0003.96,0001.54,0001.08
2024-04-11 06:10:00,SystemResetWarning,0834.4,5.00,000.00,025.4,024.5,000.0,034.0,027.3,016.7,0000.0,0003.93,0001.52,0001.07
2024-04-11 06:11:00,SystemResetWarning,0834.4,5.00,000.00,025.4,024.5,000.0,034.0,027.3,016.7,0000.0,0003.97,0001.52,0001.08
2024-04-11 06:12:00,SystemResetWarning,0834.4,5.01,000.00,025.4,024.5,000.0,034.0,027.3,016.9,0000.0,0004.07,0001.53,0001.08
2024-04-11 06:13:00,SystemResetWarning,0834.4,5.00,000.00,025.4,024.5,000.0,034.0,027.3,016.9,0000.0,0004.07,0001.53,0001.07
2024-04-11 06:14:00,SystemResetWarning,0834.4,5.01,000.00,025.4,024.5,000.0,034.0,027.3,017.0,0000.0,0004.19,0001.56,0001.07
2024-04-11 06:15:00,SystemResetWarning,0834.4,5.00,000.00,025.4,024.5,000.0,034.0,027.3,016.9,0000.0,0005.26,0001.57,0001.06
2024-04-11 06:16:00,SystemResetWarning,0834.4,5.00,000.00,025.4,024.5,000.0,034.0,027.3,016.9,0000.0,0005.55,0001.55,0001.06
2024-04-11 06:17:00,SystemResetWarning,0834.4,5.00,000.00,025.4,024.5,000.0,034.0,027.3,016.8,0000.0,0005.43,0001.54,0001.06
2024-04-11 06:18:00,SystemResetWarning,0834.4,5.00,000.00,025.4,024.5,000.0,034.0,027.3,016.8,0000.0,0004.46,0001.48,0001.05
2024-04-11 06:19:00,SystemResetWarning,0834.3,5.00,000.00,025.3,024.5,000.0,034.0,027.3,016.9,0000.0,0004.03,0001.48,0001.06
2024-04-11 06:20:00,SystemResetWarning,0834.4,5.00,000.00,025.3,024.5,000.0,034.0,027.3,016.9,0000.0,0004.42,0001.54,0001.06
2024-04-11 06:21:00,SystemResetWarning,0834.4,5.00,000.00,025.3,024.5,000.0,034.0,027.3,016.8,0000.0,0005.06,0001.53,0001.05
2024-04-11 06:22:00,SystemResetWarning,0834.4,5.00,000.00,025.3,024.5,000.0,034.0,027.2,016.8,0000.0,0005.09,0001.55,0001.05
2024-04-11 06:23:00,SystemResetWarning,0834.4,5.00,000.00,025.3,024.5,000.0,034.0,027.3,016.7,0000.0,0005.00,0001.56,0001.06
2024-04-11 06:24:00,SystemResetWarning,0834.3,4.99,000.00,025.3,024.5,000.0,034.0,027.2,016.9,0000.0,0005.43,0001.57,0001.07
2024-04-11 06:25:00,SystemResetWarning,0834.3,5.00,000.00,025.3,024.5,000.0,034.0,027.2,017.0,0000.0,0005.67,0001.56,0001.07
2024-04-11 06:26:00,SystemResetWarning,0834.3,5.00,000.00,025.3,024.5,000.0,034.0,027.2,016.9,0000.0,0005.01,0001.57,0001.07
2024-04-11 06:27:00,SystemResetWarning,0834.2,5.00,000.00,025.3,024.5,000.0,034.0,027.2,016.8,0000.0,0004.53,0001.61,0001.06
2024-04-11 06:28:00,SystemResetWarning,0834.2,5.00,000.00,025.3,024.5,000.0,034.0,027.2,016.8,0000.0,0004.91,0001.64,0001.07
2024-04-11 06:29:00,SystemResetWarning,0834.6,5.00,000.00,025.3,024.5,000.0,034.0,027.2,016.7,0000.0,0005.07,0001.66,0001.08
2024-04-11 06:30:00,SystemResetWarning,0834.3,5.00,000.00,025.3,024.5,000.0,034.0,027.2,016.8,0000.0,0004.98,0001.62,0001.07
2024-04-11 06:31:00,SystemResetWarning,0834.4,5.00,000.00,025.3,024.5,000.0,034.0,027.2,016.7,0000.0,0004.74,0001.51,0001.06
2024-04-11 06:32:00,SystemResetWarning,0834.2,5.00,000.00,025.3,024.5,000.0,033.9,027.2,016.7,0000.0,0003.77,0001.50,0001.06
2024-04-11 06:33:00,SystemResetWarning,0834.4,5.00,000.00,025.3,024.5,000.0,033.9,027.2,016.8,0000.0,0003.79,0001.50,0001.05
2024-04-11 06:34:00,SystemResetWarning,0834.4,5.01,000.00,025.3,024.5,000.0,033.9,027.2,016.7,0000.0,0003.72,0001.46,0001.04
2024-04-11 06:35:00,SystemResetWarning,0834.8,5.00,000.00,025.3,024.5,000.0,033.9,027.2,016.7,0000.0,0003.32,0001.42,0001.02
2024-04-11 06:36:00,SystemResetWarning,0834.4,5.01,000.00,025.3,024.5,000.0,033.9,027.2,016.7,0000.0,0002.80,0001.38,0001.01
2024-04-11 06:37:00,SystemResetWarning,0834.4,5.00,000.00,025.3,024.5,000.0,033.9,027.2,016.6,0000.0,0002.65,0001.35,0001.01
2024-04-11 06:38:00,SystemResetWarning,0834.7,5.00,000.00,025.3,024.5,000.0,033.9,027.2,016.6,0000.0,0002.52,0001.29,0001.00
2024-04-11 06:39:00,SystemResetWarning,0834.6,5.01,000.00,025.3,024.5,000.0,033.9,027.2,016.6,0000.0,0002.35,0001.26,0000.99
2024-04-11 06:40:00,SystemResetWarning,0834.4,5.00,000.00,025.3,024.4,000.0,033.9,027.2,016.6,0000.0,0002.08,0001.28,0000.98
2024-04-11 06:41:00,SystemResetWarning,0834.5,5.01,000.00,025.3,024.4,000.0,033.9,027.2,016.6,0000.0,0002.26,0001.34,0000.98
2024-04-11 06:42:00,SystemResetWarning,0834.4,5.00,000.00,025.3,024.5,000.0,033.9,027.2,016.6,0000.0,0002.28,0001.35,0000.99
2024-04-11 06:43:00,SystemResetWarning,0834.2,5.00,000.00,025.3,024.5,000.0,033.9,027.1,016.7,0000.0,0002.40,0001.39,0000.99
2024-04-11 06:44:00,SystemResetWarning,0834.4,4.99,000.00,025.3,024.5,000.0,033.9,027.1,016.7,0000.0,0002.32,0001.36,0001.00
2024-04-11 06:45:00,SystemResetWarning,0834.3,4.99,000.00,025.3,024.5,000.0,033.9,027.2,016.7,0000.0,0002.31,0001.38,0001.00
2024-04-11 06:46:00,SystemResetWarning,0834.3,5.00,000.00,025.3,024.5,000.0,033.9,027.2,016.6,0000.0,0002.38,0001.39,0000.99
2024-04-11 06:47:00,SystemResetWarning,0834.5,5.00,000.00,025.3,024.5,000.0,033.9,027.1,016.7,0000.0,0002.48,0001.44,0001.00
2024-04-11 06:48:00,SystemResetWarning,0834.3,5.00,000.00,025.2,024.5,000.0,033.9,027.2,016.7,0000.0,0002.49,0001.46,0001.00
2024-04-11 06:49:00,SystemResetWarning,0834.2,5.01,000.00,025.3,024.5,000.0,033.9,027.2,016.7,0000.0,0002.52,0001.50,0001.01
2024-04-11 06:50:00,SystemResetWarning,0834.4,4.99,000.00,025.2,024.4,000.0,033.9,027.1,016.7,0000.0,0002.78,0001.52,0001.02
2024-04-11 06:51:00,SystemResetWarning,0834.4,5.00,000.00,025.2,024.4,000.0,033.9,027.1,016.7,0000.0,0003.04,0001.52,0001.02
2024-04-11 06:52:00,SystemResetWarning,0834.2,4.99,000.00,025.2,024.4,000.0,033.9,027.1,016.9,0000.0,0003.69,0001.48,0001.03
2024-04-11 06:53:00,SystemResetWarning,0834.6,5.01,000.00,025.2,024.4,000.0,033.9,027.1,016.8,0000.0,0004.11,0001.48,0001.02
2024-04-11 06:54:00,SystemResetWarning,0834.3,5.00,000.00,025.2,024.4,000.0,033.9,027.1,016.9,0000.0,0004.06,0001.44,0001.02
2024-04-11 06:55:00,SystemResetWarning,0834.3,5.00,000.00,025.2,024.4,000.0,033.9,027.1,016.8,0000.0,0004.30,0001.44,0001.00
2024-04-11 06:56:00,SystemResetWarning,0834.3,5.00,000.00,025.2,024.4,000.0,033.9,027.1,016.7,0000.0,0004.38,0001.47,0001.00
2024-04-11 06:57:00,SystemResetWarning,0834.4,4.99,000.00,025.2,024.4,000.0,033.9,027.1,016.7,0000.0,0004.52,0001.50,0001.00
2024-04-11 06:58:00,SystemResetWarning,0834.4,5.00,000.00,025.2,024.4,000.0,033.9,027.1,016.7,0000.0,0004.56,0001.49,0001.00
2024-04-11 06:59:00,SystemResetWarning,0834.6,4.99,000.00,025.2,024.4,000.0,033.8,027.1,016.8,0000.0,0004.66,0001.47,0000.99
